{"data":{"norad_id":49446,"intl_designator":"2021-104AQ","name":"STARLINK-3099","alt_names":[],"object_type":"PAYLOAD","status":"ACTIVE","operator":null,"country":"US","launch_date":"2021-11-13","launch_site_code":"AFETR","launch_vehicle":null,"mission":null,"orbit_class":"UNKNOWN","rcs_meters":null,"size_class":null,"mass_kg":null,"dimensions":null,"purposes":["comms"],"wikipedia_slug":null,"has_3d_model":false,"image_url":null,"decayed_at":null,"tle_current":{"epoch":"2026-09-20T00:22:18.303168Z","epoch_age_seconds":83170,"freshness":"FRESH","line1":"1 49446U 21104AQ  26263.01548962 -.00000211  00000+0  49549-5 0  9999","line2":"2 49446  53.1615  48.2945 0001314  86.8671 273.2481 15.31701858268368","mean_motion":15.31701858,"eccentricity":0.0001314,"inclination_deg":53.1615,"raan_deg":48.2945,"arg_perigee_deg":86.8671,"mean_anomaly_deg":273.2481,"bstar":4.9549e-6,"rev_number":26836,"period_min":94.01307392029,"perigee_km":469.83451492053,"apogee_km":471.63439833933,"semimajor_km":6848.8714566299,"source":"CELESTRAK","updated_at":"2026-09-20T09:00:39.399841Z"}}}